| time (UTC) | temp F | wind direction | speed MPH | gust MPH | rain 1hr in | rain 24hr in | rain mn in | humidity % | barometer mb |
| 20260505041537 | 51 | 253 | 1.0 | 3.0 | 0.00 | 0.00 | 0.00 | 75 | 1012.5 |
| 20260505040046 | 52 | 253 | 1.0 | 3.0 | 0.00 | 0.00 | 0.00 | 74 | 1012.6 |
| 20260505034541 | 52 | 253 | 1.0 | 5.0 | 0.00 | 0.00 | 0.00 | 74 | 1012.5 |
| 20260505033042 | 52 | 0 | 1.0 | 3.0 | 0.00 | 0.00 | 0.00 | 74 | 1012.5 |
| 20260505031553 | 51 | 253 | 0.0 | 4.0 | 0.00 | 0.00 | 0.00 | 75 | 1012.4 |
| 20260505030038 | 51 | 253 | 1.0 | 2.0 | 0.00 | 0.00 | 0.00 | 74 | 1012.5 |
| 20260505024540 | 51 | 253 | 0.0 | 2.0 | 0.00 | 0.00 | 0.00 | 74 | 1012.5 |
| 20260505023047 | 52 | 253 | 0.0 | 2.0 | 0.00 | 0.00 | 0.00 | 72 | 1012.5 |
| 20260505021542 | 53 | 253 | 0.0 | 2.0 | 0.00 | 0.00 | 0.00 | 70 | 1012.6 |
| 20260505020041 | 53 | 253 | 2.0 | 5.0 | 0.00 | 0.00 | 0.00 | 69 | 1012.6 |
| 20260505014542 | 54 | 253 | 1.0 | 7.0 | 0.00 | 0.00 | 0.00 | 68 | 1012.5 |
| 20260505013037 | 54 | 253 | 1.0 | 5.0 | 0.00 | 0.00 | 0.00 | 66 | 1012.3 |
| 20260505011544 | 54 | 253 | 1.0 | 5.0 | 0.00 | 0.00 | 0.00 | 65 | 1012.2 |
| 20260505010035 | 55 | 253 | 2.0 | 5.0 | 0.00 | 0.00 | 0.00 | 64 | 1011.9 |
| 20260505004548 | 55 | 253 | 2.0 | 6.0 | 0.00 | 0.00 | 0.00 | 62 | 1011.7 |
| 20260505003043 | 56 | 253 | 1.0 | 5.0 | 0.00 | 0.00 | 0.00 | 61 | 1011.5 |
| 20260505001542 | 57 | 253 | 1.0 | 4.0 | 0.00 | 0.00 | 0.00 | 59 | 1011.4 |
| 20260505000057 | 58 | 240 | 1.0 | 6.0 | 0.00 | 0.00 | 0.00 | 57 | 1011.0 |
| 20260504234538 | 59 | 240 | 1.0 | 6.0 | 0.00 | 0.00 | 0.00 | 55 | 1010.8 |
| 20260504233042 | 60 | 240 | 1.0 | 7.0 | 0.00 | 0.00 | 0.00 | 53 | 1010.5 |
| 20260504231541 | 61 | 240 | 3.0 | 9.0 | 0.00 | 0.00 | 0.00 | 51 | 1010.2 |
| 20260504230057 | 61 | 237 | 1.0 | 7.0 | 0.00 | 0.00 | 0.00 | 51 | 1010.1 |
| 20260504224538 | 62 | 228 | 2.0 | 5.0 | 0.00 | 0.00 | 0.00 | 50 | 1010.1 |
| 20260504223040 | 63 | 226 | 3.0 | 9.0 | 0.00 | 0.00 | 0.00 | 47 | 1010.0 |
| 20260504221549 | 63 | 237 | 3.0 | 11.0 | 0.00 | 0.00 | 0.00 | 46 | 1010.1 |
| 20260504220044 | 63 | 229 | 3.0 | 7.0 | 0.00 | 0.00 | 0.00 | 45 | 1009.9 |
| 20260504214540 | 64 | 205 | 4.0 | 13.0 | 0.00 | 0.00 | 0.00 | 44 | 1010.0 |
| 20260504213044 | 64 | 242 | 3.0 | 9.0 | 0.00 | 0.00 | 0.00 | 44 | 1010.0 |
| 20260504211545 | 66 | 224 | 4.0 | 8.0 | 0.00 | 0.00 | 0.00 | 42 | 1010.0 |
| 20260504210041 | 66 | 234 | 4.0 | 8.0 | 0.00 | 0.00 | 0.00 | 39 | 1009.8 |
| 20260504204538 | 66 | 234 | 1.0 | 12.0 | 0.00 | 0.00 | 0.00 | 40 | 1009.8 |
| 20260504203049 | 66 | 239 | 3.0 | 8.0 | 0.00 | 0.00 | 0.00 | 39 | 1010.0 |
| 20260504201542 | 66 | 231 | 2.0 | 8.0 | 0.00 | 0.00 | 0.00 | 39 | 1010.0 |
| 20260504200041 | 67 | 221 | 2.0 | 16.0 | 0.00 | 0.00 | 0.00 | 36 | 1010.1 |
| 20260504194541 | 68 | 236 | 3.0 | 11.0 | 0.00 | 0.00 | 0.00 | 34 | 1010.0 |
| 20260504193041 | 67 | 262 | 2.0 | 14.0 | 0.00 | 0.00 | 0.00 | 35 | 1010.0 |
| 20260504191544 | 67 | 257 | 2.0 | 9.0 | 0.00 | 0.00 | 0.00 | 36 | 1010.0 |
| 20260504190036 | 67 | 257 | 4.0 | 8.0 | 0.00 | 0.00 | 0.00 | 35 | 1010.2 |
| 20260504184543 | 67 | 285 | 3.0 | 10.0 | 0.00 | 0.00 | 0.00 | 35 | 1010.2 |
| 20260504183041 | 67 | 273 | 6.0 | 13.0 | 0.00 | 0.00 | 0.00 | 35 | 1010.6 |
| 20260504181543 | 67 | 252 | 3.0 | 9.0 | 0.00 | 0.00 | 0.00 | 36 | 1010.6 |
| 20260504180041 | 66 | 233 | 4.0 | 10.0 | 0.00 | 0.00 | 0.00 | 34 | 1010.8 |
| 20260504174535 | 65 | 200 | 3.0 | 12.0 | 0.00 | 0.00 | 0.00 | 34 | 1011.0 |
| 20260504173042 | 66 | 233 | 3.0 | 14.0 | 0.00 | 0.00 | 0.00 | 34 | 1011.0 |
| 20260504171542 | 66 | 265 | 3.0 | 10.0 | 0.00 | 0.00 | 0.00 | 39 | 1011.1 |
| 20260504081541 | 47 | 295 | 0.0 | 4.0 | 0.00 | 0.00 | 0.00 | 53 | 1012.1 |